Regional Weather Roundup
Issued by NWS Charleston, SC

Current Version | Previous Version | Graphics & Text | Print | Product List | Glossary On
Versions: 1 2 3 4 5 6 7 8 9 10 11 12 13 14 15 16 17 18 19 20 21 22 23 24 25 26 27 28 29 30 31 32 33 34 35 36 37 38 39 40 41 42 43 44 45 46 47 48 49 50
000
ASUS42 KCHS 251712
RWRCHS

REGIONAL WEATHER ROUNDUP
NATIONAL WEATHER SERVICE CHARLESTON SC
100 PM EDT TUE APR 25 2017

NOTE: "FAIR" INDICATES FEW OR NO CLOUDS BELOW 12,000 FEET WITH NO
SIGNIFICANT WEATHER AND/OR OBSTRUCTIONS TO VISIBILITY.

NOT ALL STATIONS ARE QUALITY CONTROLLED. USE DATA WITH CAUTION...
ESPECIALLY DEWPOINT OBSERVATIONS.

SCZ027-030-031-034>040-042>050-251800-
...SOUTHEAST SOUTH CAROLINA...

CITY           SKY/WX    TMP DP  RH WIND       PRES   REMARKS
N CHARLESTON   PTSUNNY   69  56  62 W13       29.70F
WATERFRONT PRK   N/A     66  58  75 W8G17     29.70S
JOHNS ISLAND   CLOUDY    70  57  64 W9G17     29.71F
PINOPOLIS        N/A     64  61  88 W10       29.62S
MONCKS CORNER  PTSUNNY   68  57  68 NW6       29.69F
SUMMERVILLE    PTSUNNY   68  59  73 W7        29.72S
BEAUFORT MCAS  MOSUNNY   73  59  61 W13       29.73F
BEAUFORT ARPT  PTSUNNY   70  57  64 W12G17    29.73F
HILTON HEAD IS MOSUNNY   70  57  64 W7        29.75F
WALTERBORO     PTSUNNY   70  57  64 W8G16     29.73F
ALLENDALE      PTSUNNY   72  57  60 VRB5      29.72S

...SOUTHERN MIDLANDS AND PEE DEE...

CITY           SKY/WX    TMP DP  RH WIND       PRES   REMARKS
GEORGETOWN     CLOUDY    64  57  77 W12G18    29.70S
KINGSTREE      CLOUDY    61  55  82 W10       29.70S
ORANGEBURG     CLOUDY    71  58  63 NW8       29.71F
BARNWELL       PTSUNNY   72  61  68 W6G14     29.72F
AIKEN          PTSUNNY   70  55  60 W9G16     29.76S
MANNING        CLOUDY    64  55  72 MISG      29.70S
COLUMBIA       CLOUDY    68  56  65 NW13      29.71S
SUMTER         CLOUDY    64  57  77 W10       29.68F
FLORENCE       CLOUDY    64  60  87 NW8       29.68S
MYRTLE BEACH   CLOUDY    64  57  77 W12       29.68S
N MYRTLE BEACH CLOUDY    65  59  81 W7        29.66S

$$

GAZ063-065-086>088-099>101-113>116-118-119-134>141-150-251800-
...SOUTHEAST GEORGIA...

CITY           SKY/WX    TMP DP  RH WIND       PRES   REMARKS
SAVANNAH ARPT  MOSUNNY   74  55  51 W10       29.74F
HUNTER AAF     SUNNY     73  61  65 NW12      29.72F
FORT STEWART   SUNNY     75  56  51 NW7       29.73F
STATESBORO     PTSUNNY   74  57  54 W13       29.74F
SYLVANIA       PTSUNNY  N/A N/A N/A NW7       29.74F
CLAXTON        FAIR      75  62  64 SW14      29.75F

...CSRA...CENTRAL AND FAR SOUTHEAST GEORGIA...

CITY           SKY/WX    TMP DP  RH WIND       PRES   REMARKS
THOMSON        CLOUDY    71  58  62 N8G17     29.79R
AUGUSTA-BUSH   PTSUNNY   75  58  55 NW10      29.71F
AUGUSTA-DANIEL PTSUNNY   73  56  54 NW7       29.73S
SWAINSBORO     FAIR      75  57  53 NW12      29.75F
VIDALIA        MOSUNNY   77  57  50 W7G17     29.76F
EASTMAN        PTSUNNY   76  47  35 NW7       29.80F
HAZLEHURST     FAIR      77  60  56 W9        29.77F
ALMA           SUNNY     75  58  55 W10G17    29.78F
WAYCROSS       PTSUNNY   80  62  53 W9        29.78F
JESUP          PTSUNNY   77  54  44 NW8G18    29.77S
BAXLEY         FAIR      77  61  57 W12       29.77F
BRUNSWICK      PTSUNNY   77  63  61 W13       29.77F
SAINT SIMONS   RAIN      75  57  53 W10       29.77F

$$

SCZ027-028-034-036>038-045-046-048>050-GAZ119-141-251800-
...LAKE AND SUPPLEMENTAL COASTAL OBSERVATIONS...

STATION/POSITION TIME  TEMP    WIND        PRES    WAVE   SWELL
                       AIR SEA DIR/SP/G            HT/PER HT/PER/DIR
                 (UTC) (F)     (DEG/KT/KT) (MB)    (FT/S) (FT/S/D)
WINYAH BAY       1545   62     280/  8     1005.0
LAKE MURRAY      1620   65     310/  3/  7 1006.1
ACE BASIN NERRS  1545   65     280/  4     1007.0
FORT PULASKI     1648   66 74  300/  9/ 12 1007.5F
SAPELO ISLAND    1600   73     300/  8     1008.0

$$

ANZ835-935-AMZ111-154-330-350-352-354-370-450-454-472-251800-
...C-MAN AND BUOY OBSERVATIONS...

STATION/POSITION TIME  TEMP    WIND        PRES    WAVE   SWELL
                       AIR SEA DIR/SP/G            HT/PER HT/PER/DIR
                 (UTC) (F)     (DEG/KT/KT) (MB)    (FT/S) (FT/S/D)
BUOY 41004       1650   65 73  260/ 17/ 21 1006.0S   6/10   3/120/10
BUOY 41008       1650   67 71  290/ 10/ 12 1008.1R   3/11   2/ 60/11
FOLLY BEACH CMAN 1600   65     270/  6/ 13 1006.9F
CAPERS NEARSHORE 1608   67 71  300/ 16/ 21 1005.8R
FRIPP NEARSHORE  1608   65 71  300/ 12/ 17 1007.3R


STATION/POSITION TIME  TEMP    WIND        PRES    WAVE   SWELL
                       AIR SEA DIR/SP/G            HT/PER HT/PER/DIR
                 (UTC) (F)     (DEG/KT/KT) (MB)    (FT/S) (FT/S/D)
5E ST. MARYS GA  1630      73                N/A     3/11   2/ 90/11
FRYING PAN BUOY  1650   66 74  260/ 17/ 21 1004.1F   7/10   5/130/10
BUOY 41025       1650   67 78  290/  4/  8 1003.6F  10/11  10/150/11
CAPE LOOKOUT NC  1600   65      CALM  /  1 1003.6R
BUOY 41002       1650   74 75  220/ 19/ 21 1007.0F   8/10   5/100/10
BUOY 41010       1650   72 78  280/ 14/ 17 1010.1F   6/ 6   3/120/ 8
ST AUGUSTINE FL  1700   74 73  250/ 10/ 12 1010.4F


$$



USA.gov is the U.S. government's official web portal to all federal, state and local government web resources and services.